Weather History for KAAT - January, 2013

Change the Weather History Date:

Monday, January 7, 2013

  Actual Average Record
Temperature  
Mean Temperature 30 °F 29 °F  
Max Temperature 36 °F 41 °F 62 °F (1961)
Min Temperature 23 °F 18 °F -25 °F (1937)
Degree Days  
Heating Degree Days 35 36  
Month to date heating degree days 322 252  
Since 1 July heating degree days 2873 3162  
Cooling Degree Days 0 0  
Month to date cooling degree days 0 0  
Year to date cooling degree days 0 0  
Moisture  
Dew Point 26 °F    
Average Humidity 86    
Maximum Humidity 100    
Minimum Humidity 72    
Precipitation  
Precipitation 0.01 in 0.07 in 1.30 in (1935)
Month to date precipitation 0.01 0.51  
Year to date precipitation 0.01 0.51  
Sea Level Pressure  
Sea Level Pressure 30.25 in    
Wind  
Wind Speed 1 mph (East)    
Max Wind Speed 7 mph    
Max Gust Speed 9 mph    
Visibility 6 miles    
Events Snow    
T = Trace of Precipitation, MM = Missing Value Source: NWS Daily Summary

Daily Weather History Graph

Daily Weather History Graph

Search for Another Location

Airport or City:

Trip Planner

Search our weather history database for the weather conditions in past years. The results will help you decide how hot, cold, wet, or windy it might be!

Date:

Astronomy

Jan. 07, 2013 Rise Set
Actual Time 7:28 AM PST 4:49 PM PST
Civil Twilight 6:57 AM PST 5:20 PM PST
Nautical Twilight 6:23 AM PST 5:54 PM PST
Astronomical Twilight 5:49 AM PST 6:28 PM PST
Moon 2:57 AM PST (1/7) 1:04 PM PST (1/7)
Length of Visible Light 10h 22m
Length of Day
9h 20m
Waning Crescent, 21% of the Moon is Illuminated
Jan 7
Waning Crescent
Jan 11
New
Jan 18
First Quarter
Jan 26
Full
Feb 3
Last Quarter

Hourly Weather History & Observations

Time (PST) Temp. Windchill Dew Point Humidity Pressure Visibility Wind Dir Wind Speed Gust Speed Precip Events Conditions
12:48 AM 24.8 °F - 24.8 °F 100% 30.19 in 2.0 mi Calm Calm - N/A   Overcast
12:55 AM 25.0 °F 18.1 °F 25.0 °F 100% 30.27 in 2.5 mi SSE 5.8 mph - N/A   Overcast
1:05 AM 24.8 °F 20.5 °F 24.8 °F 100% 30.18 in 1.0 mi SE 3.5 mph - N/A   Overcast
1:33 AM 24.8 °F - 24.8 °F 100% 30.18 in 0.8 mi Calm Calm - N/A   Mist
1:55 AM 25.0 °F - 24.1 °F 96% 30.28 in 1.0 mi Calm Calm - N/A   Mist
2:20 AM 24.8 °F - 24.8 °F 100% 30.21 in 3.0 mi Calm Calm - N/A   Overcast
2:28 AM 24.8 °F - 24.8 °F 100% 30.20 in 1.8 mi Calm Calm - N/A   Overcast
2:51 AM 24.8 °F 17.9 °F 23.0 °F 93% 30.20 in 3.0 mi East 5.8 mph - N/A   Overcast
2:55 AM 24.1 °F 19.7 °F 23.0 °F 96% 30.28 in 7.0 mi ENE 3.5 mph - N/A   Overcast
3:13 AM 24.8 °F 20.5 °F 24.8 °F 100% 30.18 in 1.8 mi ESE 3.5 mph - N/A   Overcast
3:43 AM 24.8 °F - 24.8 °F 100% 30.20 in 0.8 mi Calm Calm - N/A   Mist
3:55 AM 25.0 °F - 24.1 °F 96% 30.28 in 0.8 mi Calm Calm - N/A   Mist
4:45 AM 24.8 °F 17.9 °F 23.0 °F 93% 30.20 in 0.8 mi East 5.8 mph - 0.00 in Snow Light Snow
4:55 AM 23.0 °F 17.0 °F 23.0 °F 100% 30.29 in 1.0 mi East 4.6 mph - 0.00 in Snow Light Snow
5:13 AM 23.0 °F - 21.2 °F 93% 30.21 in 2.5 mi Calm Calm - 0.00 in Snow Light Snow
5:22 AM 24.8 °F 20.5 °F 23.0 °F 93% 30.20 in 3.0 mi East 3.5 mph - 0.00 in Snow Light Snow
5:24 AM 24.8 °F 20.5 °F 21.2 °F 86% 30.20 in 2.5 mi East 3.5 mph - N/A Snow Light Snow
5:30 AM 24.8 °F - 21.2 °F 86% 30.20 in 3.0 mi Calm Calm - 0.01 in Snow Light Snow
5:44 AM 24.8 °F 20.5 °F 23.0 °F 93% 30.20 in 8.0 mi East 3.5 mph - 0.01 in   Overcast
5:55 AM 24.1 °F - 23.0 °F 96% 30.29 in 10.0 mi Calm Calm - 0.01 in   Overcast
6:55 AM 24.1 °F - 23.0 °F 96% 30.32 in 10.0 mi Calm Calm - N/A   Overcast
7:55 AM 24.1 °F - 23.0 °F 96% 30.30 in 10.0 mi Calm Calm - N/A   Overcast
8:36 AM 24.8 °F - 23.0 °F 93% 30.21 in 10.0 mi Calm Calm - N/A   Overcast
8:55 AM 25.0 °F - 23.0 °F 92% 30.30 in 10.0 mi Calm Calm - N/A   Mostly Cloudy
9:26 AM 24.8 °F - 24.8 °F 100% 30.22 in 10.0 mi Calm Calm - N/A   Mostly Cloudy
9:55 AM 27.0 °F 23.0 °F 24.1 °F 89% 30.31 in 10.0 mi NNE 3.5 mph - N/A   Overcast
10:52 AM 30.2 °F - 24.8 °F 80% 30.24 in 10.0 mi Calm Calm - N/A   Overcast
11:55 AM 32.0 °F - 25.0 °F 75% 30.28 in 10.0 mi Calm Calm - N/A   Overcast
12:08 PM 32.0 °F - 26.6 °F 80% 30.20 in 10.0 mi Calm Calm - N/A   Overcast
12:55 PM 32.0 °F - 26.1 °F 79% 30.27 in 10.0 mi Calm Calm - 0.00 in   Overcast
1:55 PM 34.0 °F 31.0 °F 28.0 °F 79% 30.28 in 10.0 mi East 3.5 mph - N/A   Overcast
3:55 PM 34.0 °F - 30.0 °F 85% 30.28 in 10.0 mi Calm Calm - N/A   Overcast
4:55 PM 35.1 °F - 30.9 °F 85% 30.30 in 10.0 mi Calm Calm - N/A   Overcast
5:55 PM 34.0 °F - 32.0 °F 92% 30.32 in 10.0 mi Calm Calm - N/A   Overcast
6:55 PM 34.0 °F - 30.9 °F 89% 30.32 in 10.0 mi Calm Calm - N/A   Overcast
7:09 PM 33.8 °F - 30.2 °F 87% 30.24 in 10.0 mi Calm Calm - N/A   Overcast
7:37 PM 33.8 °F - 30.2 °F 87% 30.22 in 10.0 mi Calm Calm - N/A   Overcast
7:55 PM 33.1 °F 28.7 °F 30.9 °F 92% 30.30 in 10.0 mi NNW 4.6 mph - N/A   Overcast
8:30 PM 33.8 °F 30.8 °F 30.2 °F 87% 30.24 in 7.0 mi NE 3.5 mph - N/A   Overcast
8:55 PM 34.0 °F 29.8 °F 30.9 °F 89% 30.31 in 7.0 mi ENE 4.6 mph - N/A   Overcast
9:55 PM 33.1 °F - 30.9 °F 92% 30.32 in 8.0 mi Calm Calm - N/A   Overcast
10:55 PM 33.1 °F - 30.9 °F 92% 30.30 in 5.0 mi Calm Calm - N/A   Overcast
11:12 PM 33.8 °F - 30.2 °F 87% 30.25 in 6.0 mi Calm Calm - N/A   Scattered Clouds
11:55 PM 30.9 °F 27.5 °F 30.0 °F 96% 30.29 in 5.0 mi SSE 3.5 mph - N/A   Clear